This demonstration page uses our WeatherBlox Daily Observations layout. Learn more.

Left ArrowRight Arrow

41.55636, -103.73856

Hourly Observations for March 21, 2021

Temp ( °F °C ) Dew Point ( °F °C ) Humidity (%) Winds ( mph kmh ) Pressure ( in mb ) Visibility ( mi km ) Precip ( " mm )
12:58 am 00:58 Clear 33 0.6 28 -2 83 83 NNW 21 33 29.80 1009 10 16 0.00 0.00
1:58 am 01:58 Mostly Cloudy 33 0.3 28 -2.1 84 84 NNW 21 33 29.82 1010 10 16 0.00 0.00
2:58 am 02:58 Mostly Clear 31 -0.5 28 -2.5 87 87 NNW 29 46 29.85 1011 10 16 0.00 0.00
3:58 am 03:58 Partly Cloudy 30 -1 27 -3 86 86 NNW 24 39 29.85 1011 10 16 0.00 0.00
4:58 am 04:58 Mostly Cloudy 31 -0.6 28 -2.1 90 90 NNW 23 37 29.91 1013 10 16 0.00 0.00
5:58 am 05:58 Mostly Cloudy 31 -0.7 28 -2.2 90 90 NNW 23 37 29.93 1014 10 16 0.00 0.00
6:58 am 06:58 Cloudy 30 -0.9 27 -2.6 88 88 NNW 24 39 29.97 1015 10 16 0.00 0.00
7:58 am 07:58 Mostly Cloudy 30 -1.2 27 -2.6 90 90 NNW 22 35 30.01 1016 10 16 0.00 0.00
8:58 am 08:58 Mostly Cloudy 31 -0.8 28 -2.5 88 88 NNW 21 33 30.01 1016 10 16 0.00 0.00
9:58 am 09:58 Mostly Cloudy 30 -1 28 -2.5 90 90 NNW 21 33 30.02 1017 10 16 0.00 0.00
10:58 am 10:58 Mostly Cloudy 31 -0.4 27 -2.7 85 85 NNW 22 35 30.04 1017 10 16 0.00 0.00
11:58 am 11:58 Sunny 32 0 27 -2.9 81 81 NNW 21 33 30.07 1018 10 16 0.00 0.00
12:58 pm 12:58 Mostly Sunny 33 0.4 26 -3.4 76 76 NNW 22 35 30.09 1019 10 16 0.00 0.00
1:58 pm 13:58 Mostly Sunny 34 0.9 26 -3.2 74 74 NNW 22 35 30.07 1018 10 16 0.00 0.00
2:58 pm 14:58 Sunny 34 1.1 26 -3.5 72 72 NW 21 33 30.09 1019 10 16 0.00 0.00
3:58 pm 15:58 Mostly Cloudy 34 1.1 26 -3.4 72 72 NNW 20 31 30.09 1019 10 16 0.00 0.00
4:58 pm 16:58 Sunny 34 1.1 26 -3.2 73 73 NW 13 20 30.10 1019 10 16 0.00 0.00
5:58 pm 17:58 Sunny 32 0.2 26 -3.3 78 78 NW 12 19 30.12 1020 10 16 0.00 0.00
6:58 pm 18:58 Mostly Sunny 30 -0.9 25 -4.1 79 79 WNW 10 17 30.16 1021 10 16 0.00 0.00
7:58 pm 19:58 Clear 28 -2.4 23 -4.8 84 84 WNW 10 17 30.17 1022 10 16 0.00 0.00
8:58 pm 20:58 Clear 25 -3.7 22 -5.5 87 87 W 10 17 30.17 1022 10 16 0.00 0.00
9:58 pm 21:58 Clear 25 -4 21 -6.3 84 84 W 9 15 30.19 1022 10 16 0.00 0.00
10:58 pm 22:58 Partly Cloudy 24 -4.6 20 -6.7 85 85 W 12 19 30.21 1023 10 16 0.00 0.00
11:58 pm 23:58 Mostly Cloudy 24 -4.2 20 -6.9 82 82 W 10 17 30.19 1022 10 16 0.00 0.00

Powered by AerisWeather